Date,TemperatureHighF,TemperatureAvgF,TemperatureLowF,DewpointHighF,DewpointAvgF,DewpointLowF,HumidityHigh,HumidityAvg,HumidityLow,PressureMaxIn,PressureMinIn,WindSpeedMaxMPH,WindSpeedAvgMPH,GustSpeedMaxMPH,PrecipitationSumIn
2013-1-1,30.6,23.2,18.7,23.1,14.8,7.8,78,70,57,30.07,29.89,15,3,15,0.00
2013-1-2,29.6,23.5,20.3,22.9,17.8,14.7,87,79,72,30.21,29.99,13,3,13,0.00
2013-1-3,29.7,23.4,16.3,25.5,20.1,13.6,98,87,78,30.20,29.95,18,3,18,0.00
2013-1-4,31.8,29.7,28.6,24.9,23.4,22.0,82,77,73,30.02,29.87,21,7,21,0.00
2013-1-5,37.9,33.0,29.3,30.8,27.7,24.2,92,81,65,30.27,30.02,19,3,19,0.02
2013-1-6,37.5,34.3,26.2,33.6,31.1,22.3,94,88,84,30.15,29.85,19,4,19,0.17
2013-1-7,34.2,27.5,20.8,29.2,22.9,17.0,87,83,76,30.41,30.13,21,5,21,0.00
2013-1-8,39.4,33.7,31.0,32.6,28.6,26.1,94,82,70,30.30,30.11,16,3,18,0.01
2013-1-9,45.7,39.1,29.2,37.2,32.1,27.1,95,77,60,30.34,29.92,33,5,33,0.01
2013-1-10,45.1,38.7,35.8,32.9,30.0,27.1,84,71,58,30.59,30.34,18,2,18,0.00
2013-1-11,46.2,40.7,37.6,45.5,38.2,32.9,98,91,82,30.39,29.86,9,1,9,0.15
2013-1-12,57.9,49.2,42.7,52.0,47.1,41.9,99,93,79,29.96,29.87,11,2,11,0.00
2013-1-13,58.1,49.4,42.8,53.9,47.9,41.6,100,94,83,29.93,29.71,11,1,11,1.12
2013-1-14,42.7,32.6,28.2,41.9,25.8,19.3,97,76,65,30.39,29.79,17,3,17,0.15
2013-1-15,35.2,29.4,25.4,21.8,19.4,17.3,82,67,52,30.41,30.17,12,1,12,0.00
2013-1-16,39.9,32.6,27.4,28.4,23.7,19.1,81,70,57,30.17,29.75,18,3,18,0.00
2013-1-17,35.1,21.1,13.1,28.4,12.9,6.3,86,70,57,30.23,29.82,20,3,20,0.00
2013-1-18,32.9,21.3,11.6,25.2,13.6,7.2,92,73,57,30.44,29.99,27,4,27,0.00
2013-1-19,46.2,40.6,33.0,37.8,31.5,25.0,79,70,64,29.99,29.48,28,7,28,0.02
2013-1-20,46.2,27.4,17.7,36.5,19.6,9.6,91,73,57,30.08,29.39,32,6,32,0.04
2013-1-21,23.7,17.9,12.0,12.6,8.2,2.1,80,66,53,30.07,29.86,16,3,16,0.00
2013-1-22,12.0,8.4,4.9,5.6,1.7,-3.1,86,74,65,30.22,29.90,18,3,18,0.00
2013-1-23,14.9,7.1,-2.0,7.7,-0.4,-9.5,82,71,63,30.27,30.12,12,1,12,0.00
2013-1-24,13.1,9.1,4.3,5.6,1.1,-3.3,82,70,58,30.57,30.12,20,3,20,0.00
2013-1-25,18.2,13.4,7.3,14.6,9.2,1.0,89,83,74,30.54,30.11,5,0,5,0.00
2013-1-26,27.1,20.0,12.6,18.7,14.2,8.9,87,79,65,30.43,30.12,8,1,8,0.00
2013-1-27,29.5,22.5,12.0,23.6,17.0,8.6,87,79,67,30.58,30.33,10,2,10,0.00
2013-1-28,38.1,33.5,29.0,37.8,31.7,22.7,99,94,75,30.34,29.83,10,1,10,0.28
2013-1-29,39.7,35.9,33.2,39.4,35.4,32.4,99,98,95,30.04,29.65,17,0,17,0.65
2013-1-30,56.8,51.0,39.2,54.1,49.1,38.8,100,93,82,29.65,28.97,23,4,23,0.17
2013-1-31,49.2,27.9,21.2,47.8,23.0,14.5,96,82,66,29.70,28.98,22,6,22,0.08
2013-2-1,21.9,17.9,14.1,14.9,9.8,5.7,82,71,54,30.18,29.70,20,4,20,0.00
2013-2-2,22.7,18.3,14.4,15.6,11.4,6.0,84,74,68,30.17,29.97,15,4,15,0.00
2013-2-3,24.8,18.1,11.3,15.9,11.1,7.4,87,75,52,30.00,29.81,12,1,12,0.00
2013-2-4,22.0,18.0,11.5,16.3,11.3,4.3,86,75,66,29.98,29.86,15,2,15,0.00
2013-2-5,25.4,19.0,9.9,20.1,12.4,3.8,86,75,64,29.98,29.85,14,2,14,0.00
2013-2-6,28.1,22.8,17.5,23.5,13.3,7.0,91,68,43,30.39,29.86,17,3,17,0.03
2013-2-7,28.1,21.3,17.7,22.3,17.4,10.0,93,85,71,30.40,30.13,13,1,13,0.00
2013-2-8,20.6,17.6,14.8,19.4,16.0,13.1,95,93,90,30.20,29.90,17,4,17,0.00
2013-2-9,27.1,16.9,9.4,24.5,14.8,7.2,93,91,88,30.43,30.20,11,2,11,0.12
2013-2-10,34.6,23.4,9.8,31.8,20.2,7.7,93,87,74,30.40,29.93,10,1,10,0.05
2013-2-11,45.5,37.2,33.2,41.8,33.7,29.1,98,87,67,29.94,29.52,24,5,24,0.37
2013-2-12,36.2,33.5,30.9,31.0,26.8,23.9,87,76,62,29.95,29.66,21,4,21,0.00
2013-2-13,36.9,31.3,27.1,26.1,23.2,20.9,83,72,59,29.89,29.75,10,2,10,0.00
2013-2-14,36.0,31.9,26.4,34.7,28.7,21.2,96,88,79,29.87,29.71,15,4,15,0.20
2013-2-15,36.3,30.1,21.3,34.3,23.1,15.2,94,75,55,30.08,29.69,18,5,18,0.00
2013-2-16,28.1,21.6,18.0,22.5,18.2,12.5,96,86,78,30.08,29.97,10,1,10,0.00
2013-2-17,18.2,11.4,4.4,12.5,4.3,-0.8,82,73,61,30.25,29.98,20,4,20,0.00
2013-2-18,33.2,20.0,5.7,28.0,13.8,1.7,86,77,63,30.28,29.86,15,2,15,0.03
2013-2-19,40.1,33.5,23.8,37.8,29.5,18.7,96,85,75,29.87,29.51,28,6,28,0.55
2013-2-20,24.9,21.6,18.8,20.5,14.5,11.5,90,74,63,30.09,29.73,19,6,19,0.00
2013-2-21,27.7,17.3,8.0,17.6,10.4,1.8,81,74,65,30.44,30.08,18,4,18,0.01
2013-2-22,33.8,27.1,16.0,33.0,24.3,11.5,97,89,81,30.41,29.96,16,1,16,0.00
2013-2-23,37.6,34.8,30.6,34.7,30.7,25.5,97,85,67,29.96,29.84,15,3,15,0.05
2013-2-24,36.9,32.1,28.3,31.4,27.7,26.1,92,84,78,30.10,29.84,12,2,12,0.07
2013-2-25,37.4,34.6,32.4,29.6,28.1,26.5,84,77,66,30.23,30.09,10,1,10,0.00
2013-2-26,38.2,35.1,30.6,33.8,30.6,26.9,97,84,75,30.22,29.78,15,2,15,0.10
2013-2-27,35.2,33.5,32.4,34.4,32.8,31.9,98,97,97,29.79,29.57,10,1,10,0.91
2013-2-28,37.9,34.4,31.4,34.7,32.3,27.4,98,92,82,29.80,29.52,16,2,16,0.45
2013-3-1,31.5,27.1,21.1,27.4,21.2,15.2,86,78,68,30.01,29.79,19,6,19,0.01
2013-3-2,29.5,22.5,16.6,20.6,16.0,11.2,86,76,67,30.01,29.93,15,4,15,0.00
2013-3-3,25.8,21.6,17.9,18.2,15.4,11.6,84,77,70,29.95,29.89,16,5,16,0.00
2013-3-4,33.1,24.4,19.0,20.9,17.4,14.0,84,75,60,30.09,29.94,14,4,14,0.00
2013-3-5,33.7,26.7,19.6,27.0,20.7,15.7,86,78,63,30.12,30.00,8,1,8,0.00
2013-3-6,41.0,35.0,27.8,32.7,28.9,23.8,87,79,66,30.18,29.99,8,1,8,0.01
2013-3-7,43.1,36.5,33.8,34.1,31.3,28.2,96,82,58,30.31,30.17,7,1,7,0.04
2013-3-8,42.5,36.1,32.9,33.0,31.2,28.9,94,83,60,30.42,30.31,11,2,11,0.01
2013-3-9,46.4,36.8,29.5,34.0,30.3,27.7,93,78,58,30.42,30.18,10,1,10,0.01
2013-3-10,58.9,45.9,36.5,40.0,35.4,31.1,88,68,47,30.19,29.93,14,2,14,0.00
2013-3-11,49.9,45.4,42.2,43.8,39.4,34.6,93,80,68,29.94,29.59,14,1,14,0.20
2013-3-12,45.2,38.7,34.3,43.3,34.3,29.0,94,84,75,29.87,29.61,16,4,16,0.04
2013-3-13,37.3,31.1,20.9,31.9,24.2,10.9,93,76,50,30.01,29.82,24,4,24,0.02
2013-3-14,35.6,25.1,18.5,15.0,11.4,3.7,80,58,30,30.10,29.99,21,5,22,0.00
2013-3-15,43.2,33.2,25.8,30.5,22.9,14.7,81,66,47,30.05,29.72,23,4,23,0.00
2013-3-16,29.7,25.5,22.1,20.4,16.1,10.7,83,68,54,30.00,29.88,8,2,8,0.01
2013-3-17,32.4,24.8,21.0,16.9,12.5,7.7,78,60,43,30.36,30.00,15,2,15,0.00
2013-3-18,32.7,27.4,18.9,31.0,19.5,8.7,97,73,58,30.35,29.66,18,2,18,0.00
2013-3-19,35.9,31.3,25.0,35.4,27.7,19.2,98,87,74,29.82,29.58,18,4,18,0.13
2013-3-20,35.2,27.4,23.8,25.4,20.3,15.5,88,75,51,29.84,29.78,15,4,15,0.03
2013-3-21,31.7,25.7,20.1,27.1,19.9,15.2,91,78,69,29.82,29.70,14,3,14,0.02
2013-3-22,40.6,30.9,25.6,27.0,23.8,19.5,86,75,58,29.94,29.74,19,4,19,0.06
2013-3-23,42.7,33.7,29.2,26.9,25.1,23.1,88,71,48,30.04,29.92,17,4,17,0.02
2013-3-24,40.6,32.9,25.8,26.8,24.2,21.2,87,71,52,30.04,29.76,11,1,11,0.01
2013-3-25,45.4,37.9,32.2,30.7,27.3,24.4,76,66,55,29.76,29.65,9,1,9,0.00
2013-3-26,51.7,41.8,35.6,31.5,29.0,24.6,72,61,41,29.95,29.75,13,3,13,0.00
2013-3-27,44.6,38.1,34.2,34.7,30.4,26.3,89,74,57,30.08,29.92,16,4,16,0.01
2013-3-28,44.9,39.8,34.3,33.6,31.3,28.8,87,73,54,30.21,30.06,12,3,12,0.00
2013-3-29,53.4,43.3,37.1,32.2,29.1,21.4,78,59,40,30.21,30.12,13,2,13,0.00
2013-3-30,54.8,42.6,30.7,32.1,27.6,23.2,82,57,37,30.20,29.99,15,2,15,0.00
2013-3-31,53.7,45.5,39.4,42.0,33.9,27.6,90,64,48,30.00,29.56,14,3,14,0.02
2013-4-1,44.5,33.6,25.6,41.9,23.3,14.7,91,67,47,29.97,29.54,22,6,22,0.08
2013-4-2,35.7,28.5,23.1,24.1,17.9,13.6,77,65,45,30.13,29.96,21,5,21,0.00
2013-4-3,39.2,30.5,23.8,20.8,17.1,12.0,75,59,37,30.40,30.13,20,4,20,0.00
2013-4-4,50.4,38.1,27.7,26.1,21.0,13.7,73,53,29,30.36,29.89,21,4,21,0.00
2013-4-5,43.2,37.2,30.0,32.3,24.0,15.6,75,60,33,30.19,29.89,22,5,22,0.00
2013-4-6,43.4,33.8,24.6,29.2,23.8,18.8,80,67,47,30.32,29.97,14,2,14,0.00
2013-4-7,63.5,47.4,36.7,48.1,36.5,29.2,78,66,56,30.03,29.62,22,4,22,0.02
2013-4-8,48.4,42.7,40.3,40.3,35.6,31.9,95,77,63,30.10,29.77,14,2,14,0.29
2013-4-9,55.8,47.5,41.3,48.6,43.9,39.6,97,88,66,30.10,29.78,16,2,16,0.72
2013-4-10,46.7,42.9,40.2,45.9,41.0,37.4,97,93,88,30.11,29.88,11,2,11,0.50
2013-4-11,40.1,34.6,30.2,37.4,29.0,23.2,94,80,63,30.16,29.90,10,1,10,0.10
2013-4-12,42.9,36.7,32.5,41.3,34.7,27.5,98,93,78,29.95,29.55,15,3,15,0.70
2013-4-13,44.9,40.7,38.1,39.0,36.8,32.5,93,86,70,29.90,29.72,18,4,18,0.08
2013-4-14,47.7,40.0,33.9,33.5,30.3,28.5,83,69,51,30.17,29.90,15,2,15,0.00
2013-4-15,54.6,46.2,38.1,46.1,37.5,30.4,79,72,61,30.14,29.98,12,1,12,0.00
2013-4-16,60.7,54.7,44.8,54.2,45.9,32.5,91,73,49,30.23,29.90,18,5,18,0.02
2013-4-17,54.9,45.6,37.1,37.9,33.8,30.7,79,64,47,30.37,30.23,13,2,13,0.02
2013-4-18,70.0,54.4,41.0,61.2,47.0,35.0,91,76,65,30.25,29.63,12,-2,12,0.16
2013-4-19,64.4,55.3,42.8,59.5,48.8,31.1,94,79,60,29.67,29.29,26,7,26,0.16
2013-4-20,42.8,35.8,31.3,34.9,25.9,19.9,92,68,52,30.42,29.67,23,6,23,0.06
2013-4-21,45.6,36.0,29.0,29.5,24.8,20.4,78,64,46,30.69,30.42,12,1,12,0.00
2013-4-22,55.6,44.4,34.7,37.0,32.1,26.3,83,63,46,30.60,30.30,10,1,10,0.00
2013-4-23,53.4,46.5,36.9,40.7,36.1,32.5,84,67,55,30.30,29.87,8,1,8,0.00
2013-4-24,55.7,46.9,37.4,51.3,41.3,32.2,96,82,65,30.01,29.62,19,4,19,0.67
2013-4-25,53.4,41.4,34.0,39.0,34.9,30.5,91,79,48,30.30,30.01,23,4,23,0.06
2013-4-26,57.2,45.8,33.9,37.5,32.9,25.4,91,64,40,30.47,30.30,16,3,16,0.00
2013-4-27,66.8,51.2,41.0,43.1,35.6,29.4,76,56,41,30.41,30.20,13,2,13,0.00
2013-4-28,67.8,54.9,45.4,49.9,43.4,35.3,94,67,48,30.21,29.97,22,2,22,0.20
2013-4-29,54.9,51.0,46.6,52.7,49.4,45.8,98,94,84,30.01,29.93,5,0,5,0.30
2013-4-30,71.5,58.5,51.3,59.7,53.6,49.8,97,85,65,30.16,30.01,13,-2,13,0.01
2013-5-1,74.3,63.7,54.2,57.8,51.0,39.3,85,65,40,30.31,30.16,8,-2,8,0.00
2013-5-2,76.2,63.5,51.2,46.7,42.4,39.2,73,48,30,30.37,30.23,13,1,13,0.00
2013-5-3,74.0,63.6,51.1,49.0,44.8,40.7,71,51,38,30.27,30.18,11,1,11,0.00
2013-5-4,72.8,62.1,51.1,47.2,42.8,34.3,78,52,26,30.25,30.14,11,1,11,0.02
2013-5-5,78.6,65.6,51.4,49.4,45.0,41.0,72,49,33,30.18,30.06,11,-3,11,0.00
2013-5-6,76.5,63.1,49.3,45.9,39.2,31.3,79,45,22,30.12,30.01,12,1,12,0.00
2013-5-7,79.8,64.3,47.9,47.9,41.0,35.0,73,45,23,30.10,29.99,9,0,9,0.00
2013-5-8,72.5,62.9,56.6,58.8,52.2,41.7,88,69,51,30.02,29.93,10,0,10,0.00
2013-5-9,78.6,66.5,60.7,61.6,57.8,48.8,92,75,40,29.93,29.86,12,1,12,0.03
2013-5-10,60.8,55.3,51.9,56.4,52.0,46.5,98,89,65,29.91,29.66,11,0,11,0.79
2013-5-11,61.5,52.0,45.0,55.5,46.5,41.7,98,82,65,29.75,29.66,19,4,19,0.01
2013-5-12,50.4,41.9,36.6,47.3,33.9,29.5,91,74,52,29.91,29.66,24,6,24,0.10
2013-5-13,53.2,43.4,35.8,33.5,29.4,22.3,83,60,36,30.12,29.91,20,3,20,0.00
2013-5-14,54.6,46.4,37.5,38.1,34.3,28.3,81,63,46,30.13,29.91,18,2,18,0.00
2013-5-15,78.0,59.5,43.9,58.3,46.4,37.6,92,65,36,29.91,29.49,29,3,29,0.06
2013-5-16,74.8,62.8,52.2,47.0,43.5,38.8,69,51,28,30.02,29.69,23,4,23,0.00
2013-5-17,67.8,56.2,45.1,46.6,41.9,36.8,83,60,39,30.21,30.01,9,2,12,0.00
2013-5-18,70.0,59.1,46.4,45.1,42.5,38.2,86,57,40,30.25,30.12,10,0,10,0.00
2013-5-19,75.0,63.3,54.2,61.2,53.5,39.0,87,71,45,30.12,29.95,10,0,10,0.00
2013-5-20,83.7,68.9,58.7,68.4,61.9,55.5,94,79,59,30.01,29.83,13,1,13,0.22
2013-5-21,75.8,66.3,60.6,67.9,62.8,58.9,97,89,75,29.86,29.72,17,1,17,0.06
2013-5-22,82.5,65.8,56.9,68.1,61.6,56.1,97,87,59,29.77,29.59,13,1,13,0.26
2013-5-23,75.2,59.7,40.5,62.3,54.0,37.8,93,82,60,29.97,29.63,22,5,22,0.07
2013-5-24,54.7,45.1,39.1,39.0,35.7,32.8,92,71,53,30.25,29.97,21,6,21,0.02
2013-5-25,59.9,50.0,39.5,41.3,36.8,33.6,85,62,47,30.28,30.20,21,5,21,0.00
2013-5-26,65.0,54.2,43.3,39.2,36.6,-99.9,77,54,34,30.25,30.18,18,3,18,0.00
2013-5-27,72.5,58.9,43.1,45.0,39.7,35.5,80,52,27,30.26,30.10,12,2,6,0.00
2013-5-28,56.7,53.6,50.4,56.0,48.9,41.6,99,85,62,30.12,29.89,5,0,5,0.62
2013-5-29,84.7,69.6,56.0,71.6,65.0,55.7,100,87,60,29.96,29.80,17,2,17,2.32
2013-5-30,90.5,76.5,64.7,71.9,67.5,63.5,97,76,53,30.06,29.96,20,3,20,0.00
2013-5-31,88.5,76.2,65.2,71.2,67.0,61.9,91,74,52,30.00,29.87,24,3,24,0.07
2013-6-1,82.0,72.0,65.4,71.7,66.8,63.1,94,84,67,29.88,29.70,24,4,24,0.19
2013-6-2,75.5,65.8,50.7,66.7,61.3,43.8,98,86,71,29.90,29.61,24,5,24,0.51
2013-6-3,67.1,55.7,46.6,44.6,42.7,40.3,85,64,41,30.03,29.89,15,2,15,0.00
2013-6-4,72.5,59.2,47.2,44.7,40.4,33.8,77,52,30,30.17,30.02,16,2,16,0.00
2013-6-5,65.5,60.0,54.7,46.4,42.8,36.4,68,53,44,30.23,30.07,10,0,10,0.00
2013-6-6,59.7,55.7,52.8,53.5,48.4,42.5,98,78,56,30.09,29.85,13,1,13,0.28
2013-6-7,61.4,57.9,53.5,57.1,55.5,52.9,99,92,84,29.87,29.82,11,1,11,0.01
2013-6-8,70.6,62.2,57.7,59.1,56.1,52.7,92,81,64,30.04,29.83,12,2,12,0.00
2013-6-9,76.9,65.1,52.3,63.9,52.9,50.0,94,67,46,30.16,30.04,12,1,12,0.00
2013-6-10,63.0,60.4,58.7,60.5,56.7,51.0,99,88,65,30.10,29.68,9,1,9,0.75
2013-6-11,76.3,66.7,60.3,63.3,60.9,58.4,100,83,57,29.84,29.64,15,3,15,0.37
2013-6-12,78.1,66.1,57.3,59.8,56.4,51.1,96,72,49,29.91,29.73,10,2,10,0.00
2013-6-13,73.8,63.0,59.4,62.8,57.4,-99.9,96,84,66,29.79,29.57,12,1,12,0.40
2013-6-14,76.8,65.4,58.2,62.0,56.7,46.1,99,76,53,29.98,29.78,15,4,15,0.00
2013-6-15,78.8,67.1,52.2,60.5,49.3,45.1,78,55,37,30.04,29.90,15,3,15,0.00
2013-6-16,82.1,69.8,61.7,67.0,61.5,51.0,98,76,56,29.91,29.67,14,3,14,0.49
2013-6-17,78.6,70.3,61.9,64.2,59.7,54.9,90,70,54,29.92,29.77,12,2,12,0.00
2013-6-18,73.7,63.8,54.2,55.8,52.7,46.8,95,69,42,30.04,29.89,13,2,13,0.07
2013-6-19,70.8,61.8,53.6,49.3,45.5,41.5,76,56,44,30.18,30.04,12,2,12,0.00
2013-6-20,77.5,63.5,49.5,53.2,50.1,46.3,93,64,39,30.24,30.17,12,2,12,0.00
2013-6-21,83.8,69.3,55.1,58.1,53.9,51.4,89,61,36,30.24,30.13,11,2,11,0.00
2013-6-22,79.6,70.8,62.4,74.4,64.6,53.7,97,81,61,30.14,29.96,11,1,11,0.31
2013-6-23,95.4,79.9,65.7,75.3,70.0,64.3,97,74,47,30.02,29.90,17,3,17,0.00
2013-6-24,94.0,83.5,71.6,76.2,71.0,67.7,89,67,46,29.97,29.84,15,3,15,0.00
2013-6-25,85.8,77.2,72.3,74.5,70.1,67.2,93,79,65,29.88,29.73,14,2,14,0.46
2013-6-26,89.8,78.2,69.6,72.0,69.3,66.9,93,75,54,29.78,29.72,16,3,16,0.00
2013-6-27,76.8,72.1,67.3,69.8,67.2,64.9,94,85,75,29.76,29.63,9,0,9,0.00
2013-6-28,70.0,66.1,63.6,66.6,64.3,62.1,97,94,88,29.63,29.49,5,0,5,0.33
2013-6-29,79.8,68.0,63.0,66.5,62.4,59.3,97,83,63,29.69,29.49,14,2,14,0.00
2013-6-30,80.6,69.9,59.7,64.6,61.0,55.3,94,75,56,29.93,29.68,13,1,13,0.00
2013-7-1,75.8,68.7,62.9,57.5,54.1,50.3,69,60,51,30.07,29.92,14,2,14,0.00
2013-7-2,75.8,68.2,62.5,63.6,58.6,52.2,88,72,61,30.09,30.02,9,1,9,0.00
2013-7-3,86.7,71.6,63.3,72.7,66.3,60.8,96,84,63,30.14,30.05,10,1,10,0.00
2013-7-4,86.8,75.7,69.2,73.5,70.4,68.0,97,85,64,30.13,30.05,16,3,16,0.12
2013-7-5,79.7,74.2,71.5,73.3,70.6,68.7,95,89,80,30.09,30.01,10,1,10,0.24
2013-7-6,88.0,77.0,66.8,73.3,69.5,64.6,97,79,51,30.10,29.97,12,2,13,0.00
2013-7-7,81.5,74.2,71.2,73.8,71.3,69.8,99,91,74,30.01,29.89,17,2,17,1.57
2013-7-8,89.0,74.2,68.6,75.3,69.9,66.8,99,88,60,30.02,29.93,17,2,17,2.45
2013-7-9,79.2,72.6,68.3,73.4,70.6,68.3,100,94,81,30.00,29.85,9,1,9,0.02
2013-7-10,91.5,78.1,67.2,75.2,70.3,57.2,97,79,51,29.85,29.65,20,4,20,0.04
2013-7-11,80.0,69.8,60.9,65.3,59.6,55.4,83,71,56,30.01,29.81,15,4,15,0.00
2013-7-12,80.2,70.2,61.2,65.5,60.8,57.4,88,73,59,30.16,30.01,11,1,11,0.00
2013-7-13,84.8,73.0,60.8,68.1,62.9,57.8,91,72,53,30.23,30.15,11,1,11,0.00
2013-7-14,91.9,78.4,66.3,73.3,69.3,63.9,93,75,54,30.27,30.20,10,-2,10,0.00
2013-7-15,94.3,82.6,71.7,74.0,70.4,66.5,91,69,46,30.27,30.19,12,2,12,0.00
2013-7-16,94.3,84.1,73.9,74.7,71.3,67.4,86,67,48,30.25,30.15,13,2,13,0.00
2013-7-17,98.7,87.3,76.0,79.6,75.1,72.0,88,68,51,30.17,30.02,17,2,17,0.00
2013-7-18,96.0,85.8,77.4,78.0,74.2,70.6,87,69,51,30.05,29.86,13,2,13,0.01
2013-7-19,97.1,84.4,70.9,76.8,73.9,66.8,94,72,48,29.86,29.62,26,5,26,0.52
2013-7-20,87.5,76.8,70.6,71.2,64.4,58.6,96,68,42,29.87,29.63,14,4,14,0.25
2013-7-21,77.0,68.7,61.8,61.9,58.1,53.8,85,70,57,30.01,29.87,11,1,11,0.02
2013-7-22,75.9,68.8,60.2,67.4,61.3,53.3,94,78,50,29.98,29.75,4,0,10,0.00
2013-7-23,83.5,70.8,61.5,71.4,63.3,54.7,92,78,60,29.75,29.56,8,3,13,0.11
2013-7-24,74.8,63.8,56.0,57.0,51.4,47.0,83,65,45,30.02,29.69,8,4,16,0.00
2013-7-25,77.6,66.4,55.2,57.5,54.0,51.3,89,66,41,30.11,30.02,8,2,11,0.00
2013-7-26,77.8,67.1,56.3,60.8,56.4,49.7,93,70,41,30.10,29.97,5,1,11,0.00
2013-7-27,73.2,67.2,61.6,68.3,63.7,58.1,96,89,80,29.97,29.74,8,1,22,0.51
2013-7-28,75.5,67.5,61.2,67.2,57.0,50.3,95,71,48,29.93,29.72,10,5,19,0.00
2013-7-29,73.4,64.0,58.1,61.0,56.9,53.2,89,78,62,30.11,29.92,6,2,10,0.02
2013-7-30,77.7,67.3,57.2,62.8,58.8,54.6,92,75,57,30.17,30.11,6,1,10,0.00
2013-7-31,78.8,66.4,57.5,64.5,60.1,55.2,97,81,55,30.13,29.90,5,1,8,0.46
2013-8-1,82.6,69.1,60.6,65.2,61.2,56.5,99,79,48,29.90,29.75,6,2,12,0.98
2013-8-2,79.8,67.3,58.1,65.9,59.7,55.5,93,78,46,29.85,29.76,8,2,13,0.23
2013-8-3,79.5,68.6,60.4,60.5,56.9,54.8,89,68,45,29.93,29.80,7,4,13,0.01
2013-8-4,73.9,65.2,58.4,57.3,53.7,48.8,88,68,46,30.07,29.93,9,4,15,0.00
2013-8-5,78.1,65.9,54.4,57.1,53.0,50.6,90,66,41,30.09,29.98,11,3,11,0.00
2013-8-6,78.0,69.4,61.0,63.5,59.8,55.0,88,72,58,30.01,29.94,5,2,10,0.00
2013-8-7,84.2,73.3,65.5,71.9,67.2,62.7,95,82,65,29.94,29.78,10,4,15,0.06
2013-8-8,85.4,75.3,68.5,69.5,66.4,60.7,91,75,58,29.93,29.85,7,2,11,0.00
2013-8-9,85.0,73.6,65.8,63.3,59.1,55.5,78,62,44,29.91,29.83,6,3,11,0.00
2013-8-10,78.3,67.8,58.9,59.5,53.4,49.4,74,61,42,30.07,29.88,6,3,10,0.00
2013-8-11,78.6,66.5,54.2,60.6,54.5,-99.9,88,68,50,30.11,29.98,10,2,11,0.00
2013-8-12,76.8,68.0,57.0,66.2,60.2,53.8,90,77,63,30.02,29.81,8,2,10,0.00
2013-8-13,71.4,64.5,55.0,64.2,56.3,48.9,96,76,54,29.87,29.73,9,4,16,0.00
2013-8-14,72.8,62.4,54.2,52.8,50.4,47.1,87,67,42,30.07,29.84,10,5,14,0.00
2013-8-15,77.7,64.8,53.4,55.3,51.0,47.8,85,63,42,30.10,30.02,6,2,13,0.00
2013-8-16,81.3,68.1,53.7,61.3,56.3,50.4,89,68,45,30.18,30.08,9,3,13,0.00
2013-8-17,83.3,70.1,58.0,62.3,56.9,52.1,86,66,36,30.26,30.18,6,2,10,0.00
2013-8-18,84.1,70.7,58.1,65.6,60.8,55.7,93,73,46,30.22,30.08,6,2,9,0.00
2013-8-19,86.1,73.5,60.0,64.0,60.4,57.4,91,67,43,30.09,29.98,9,2,12,0.00
2013-8-20,88.7,77.3,63.6,66.7,63.4,58.7,89,64,45,30.08,30.01,8,2,12,0.00
2013-8-21,89.9,78.3,67.7,70.4,66.5,63.1,86,68,50,30.10,29.95,8,3,12,0.00
2013-8-22,84.9,77.5,68.8,70.7,63.7,55.6,81,64,41,29.98,29.88,9,4,18,0.00
2013-8-23,79.3,68.9,60.4,58.5,56.8,54.5,85,67,46,30.18,29.98,6,1,9,0.00
2013-8-24,78.9,68.6,57.3,60.7,57.0,54.5,92,69,46,30.33,30.18,8,2,10,0.00
2013-8-25,82.6,70.0,56.3,68.0,61.1,54.3,96,75,50,30.31,30.05,8,2,11,0.09
2013-8-26,78.2,71.6,69.1,73.3,68.7,65.2,98,91,79,30.07,29.89,6,2,11,1.22
2013-8-27,85.8,74.0,65.6,71.5,68.6,63.8,95,84,62,29.92,29.83,5,1,9,1.66
2013-8-28,85.7,76.1,70.3,73.1,70.1,68.1,95,83,59,29.94,29.82,2,1,9,0.01
2013-8-29,88.5,77.7,68.7,71.4,68.7,66.3,92,75,56,30.03,29.94,6,2,9,0.00
2013-8-30,87.8,76.4,67.6,70.9,68.1,64.9,93,77,55,29.96,29.67,10,3,16,0.03
2013-8-31,79.3,73.8,70.0,70.4,68.7,66.8,91,84,71,29.82,29.67,4,1,7,0.00
2013-9-1,79.5,71.8,67.2,68.0,66.0,64.7,94,83,63,29.83,29.72,4,0,8,0.01
2013-9-2,79.6,71.0,62.3,70.8,64.7,54.9,94,81,57,29.77,29.66,9,3,15,0.00
2013-9-3,73.6,65.1,60.0,58.5,54.5,49.8,81,69,54,29.92,29.76,7,3,11,0.00
2013-9-4,81.5,66.8,55.7,62.5,56.0,50.3,86,70,49,29.99,29.90,7,3,12,0.00
2013-9-5,67.2,58.8,51.4,53.3,44.4,37.8,83,61,36,30.24,29.98,7,3,16,0.00
2013-9-6,74.4,59.5,44.8,57.5,46.6,40.6,87,64,36,30.28,30.05,6,2,10,0.00
2013-9-7,68.1,63.9,59.9,65.4,58.5,50.8,93,83,66,30.05,29.85,8,2,13,0.74
2013-9-8,71.5,64.2,56.2,65.4,52.5,46.0,93,67,41,30.10,29.84,7,2,11,0.01
2013-9-9,70.8,60.3,50.3,58.1,51.9,47.3,90,75,50,30.12,29.92,6,1,8,0.00
2013-9-10,93.5,78.3,63.1,75.4,69.0,58.2,93,75,55,29.94,29.84,7,3,13,0.01
2013-9-11,91.4,80.9,71.6,73.6,69.5,67.4,90,69,55,29.96,29.84,8,3,16,0.74
2013-9-12,76.4,69.4,61.0,68.5,63.2,54.4,93,81,53,29.88,29.71,7,3,15,0.36
2013-9-13,60.9,53.9,50.8,54.7,45.4,40.7,80,73,66,30.06,29.77,9,4,16,0.00
2013-9-14,67.6,54.4,42.7,48.2,41.9,35.8,85,64,35,30.14,30.05,6,2,10,0.00
2013-9-15,67.8,59.3,51.9,54.6,49.8,46.6,83,71,56,30.11,30.02,7,2,14,0.09
2013-9-16,61.0,53.9,46.4,52.0,45.4,39.8,90,74,49,30.39,30.04,6,2,11,0.00
2013-9-17,62.9,51.7,41.1,48.1,43.3,36.6,87,74,54,30.48,30.27,5,1,10,0.00
2013-9-18,72.2,57.2,44.1,53.8,48.1,41.5,93,74,41,30.27,30.08,6,1,11,0.00
2013-9-19,74.6,60.7,49.5,62.9,55.9,46.7,92,85,66,30.10,29.98,7,2,13,0.00
2013-9-20,77.0,67.8,59.2,68.5,63.3,56.9,95,86,74,29.99,29.70,8,3,13,0.24
2013-9-21,69.7,61.4,51.7,67.0,58.8,46.3,94,91,82,29.73,29.59,7,3,10,1.09
2013-9-22,55.7,51.1,47.1,47.7,42.8,39.5,90,74,56,30.05,29.73,8,3,13,0.01
2013-9-23,64.5,52.8,45.8,45.4,42.4,40.1,90,69,45,30.17,30.05,5,1,11,0.00
2013-9-24,69.7,54.1,42.9,51.0,44.2,39.6,92,72,37,30.17,30.01,4,1,7,0.00
2013-9-25,73.7,58.1,46.3,53.8,47.9,43.0,91,71,46,30.02,29.94,5,1,8,0.00
2013-9-26,72.1,59.6,48.2,53.7,49.5,44.8,92,71,47,30.15,29.99,5,1,8,0.00
2013-9-27,68.7,58.5,50.5,55.1,51.5,48.0,92,79,60,30.27,30.15,4,1,9,0.00
2013-9-28,69.2,59.1,50.5,59.4,54.4,47.9,93,85,68,30.28,30.11,3,0,6,0.00
2013-9-29,72.0,62.6,54.2,60.5,56.6,51.3,92,81,64,30.12,29.97,7,2,15,0.02
2013-9-30,67.9,64.3,61.7,63.2,61.2,58.1,94,90,84,29.97,29.91,8,2,11,0.06
2013-10-1,77.6,63.9,52.4,63.4,57.7,50.1,94,81,53,30.01,29.86,9,3,14,0.00
2013-10-2,80.5,68.8,58.2,61.8,52.4,40.8,88,60,27,30.07,29.87,7,3,13,0.00
2013-10-3,73.9,61.0,47.9,56.9,44.9,39.2,85,58,33,30.12,30.00,4,1,7,0.00
2013-10-4,64.0,60.9,59.8,59.9,57.4,55.0,94,88,78,30.07,29.96,2,0,5,0.45
2013-10-5,63.8,60.2,55.9,55.5,53.3,51.3,88,78,66,30.11,30.01,3,0,8,0.09
2013-10-6,65.8,61.2,57.3,64.3,58.1,50.8,95,90,72,30.01,29.64,4,1,8,0.10
2013-10-7,67.1,58.6,51.6,64.6,52.0,42.6,95,80,50,30.03,29.59,12,4,17,0.48
2013-10-8,66.5,54.4,46.0,49.6,45.8,42.5,92,74,49,30.33,30.03,6,1,11,0.00
2013-10-9,66.7,54.0,43.9,53.1,47.1,41.6,93,79,49,30.38,30.27,5,1,8,0.00
2013-10-10,68.2,54.9,46.5,56.0,48.7,44.6,95,81,56,30.27,30.16,3,0,6,0.00
2013-10-11,70.0,54.9,43.3,49.8,44.2,39.4,87,70,40,30.18,30.12,3,0,7,0.00
2013-10-12,69.4,56.6,43.8,57.3,49.1,40.2,90,77,54,30.19,30.12,3,0,6,0.00
2013-10-13,61.0,59.1,55.2,59.3,55.8,50.6,95,89,73,30.27,30.13,5,1,9,0.64
2013-10-14,65.8,54.9,46.8,53.0,48.6,44.2,92,80,57,30.34,30.26,4,1,8,0.00
2013-10-15,64.3,55.6,44.3,57.8,50.5,41.7,93,84,68,30.30,29.89,4,1,7,0.00
2013-10-16,69.3,63.0,54.7,62.5,57.4,47.2,94,83,60,29.89,29.69,11,4,18,0.31
2013-10-17,64.0,55.8,52.4,52.7,49.5,47.3,92,80,59,29.85,29.67,6,2,8,0.44
2013-10-18,61.7,53.5,48.1,49.5,44.2,39.6,90,72,47,29.86,29.68,8,3,17,0.02
2013-10-19,53.0,47.1,42.6,45.5,42.8,38.1,91,85,67,29.84,29.65,4,1,8,0.35
2013-10-20,58.7,46.8,38.1,44.7,38.2,33.5,92,74,42,29.94,29.74,8,2,18,0.00
2013-10-21,59.9,53.4,44.5,50.1,47.0,39.5,93,79,68,29.92,29.74,10,4,17,0.47
2013-10-22,49.5,44.7,40.5,47.6,34.4,28.3,93,68,52,29.82,29.73,10,4,17,0.01
2013-10-23,48.3,42.3,37.6,38.0,33.0,25.9,89,70,48,29.80,29.71,8,2,14,0.00
2013-10-24,49.4,41.1,35.5,36.8,33.5,30.5,85,75,57,30.04,29.77,7,3,14,0.00
2013-10-25,49.2,42.1,36.9,36.6,34.5,30.6,92,75,52,30.18,30.03,8,2,11,0.01
2013-10-26,44.5,42.1,39.7,38.2,35.3,28.8,90,78,56,30.07,29.72,12,7,21,0.77
2013-10-27,49.0,42.0,36.4,36.7,34.4,32.4,87,75,56,30.02,29.79,6,2,9,0.15
2013-10-28,48.9,43.0,33.9,37.6,29.1,21.1,77,59,36,30.42,29.99,9,2,15,0.00
2013-10-29,46.4,37.0,28.5,33.0,27.4,22.8,80,69,54,30.50,30.30,4,1,8,0.00
2013-10-30,52.9,43.9,39.1,42.5,38.5,33.2,94,82,62,30.30,30.07,4,0,8,0.02
2013-10-31,61.1,52.5,42.3,57.4,50.0,39.0,99,91,84,30.07,29.26,11,4,22,0.64
2013-11-1,59.7,55.2,48.9,56.7,47.8,42.2,93,77,66,29.61,29.04,15,8,25,0.15
2013-11-2,48.8,44.0,35.1,44.2,39.1,27.3,90,83,73,30.06,29.58,6,3,11,0.08
2013-11-3,41.4,33.2,28.0,27.4,22.9,18.0,83,66,40,30.54,30.06,5,2,10,0.00
2013-11-4,42.7,35.2,26.5,29.1,25.7,21.5,83,69,54,30.65,30.42,7,2,12,0.00
2013-11-5,53.9,44.7,33.7,41.5,36.7,28.9,85,74,63,30.43,30.28,5,2,9,0.00
2013-11-6,57.9,52.5,47.6,54.0,45.1,38.1,93,76,66,30.28,29.73,9,5,16,0.20
2013-11-7,55.1,42.7,37.9,50.4,34.7,30.2,86,74,57,29.98,29.77,9,4,20,0.02
2013-11-8,43.8,38.8,33.7,32.3,28.9,24.1,82,68,48,30.22,29.96,10,3,14,0.00
2013-11-9,50.7,43.9,37.7,42.6,35.2,28.1,89,71,63,30.21,29.74,9,4,17,0.02
2013-11-10,49.5,43.3,38.5,40.9,34.9,29.4,79,72,60,30.17,29.75,11,5,23,0.02
2013-11-11,43.5,37.6,29.2,36.9,29.9,19.4,87,74,58,30.16,29.90,10,5,17,0.05
2013-11-12,34.4,28.1,24.2,22.6,17.3,12.2,78,64,48,30.43,30.16,10,5,20,0.00
2013-11-13,40.2,32.1,23.2,23.4,20.5,17.6,81,63,44,30.44,30.03,12,5,20,0.00
2013-11-14,52.2,42.1,34.1,34.1,26.2,20.3,64,53,45,30.08,29.95,12,7,18,0.00
2013-11-15,54.0,46.5,42.2,37.5,31.2,25.6,69,55,44,30.08,29.98,10,5,19,0.00
2013-11-16,54.1,48.0,39.1,42.3,38.3,32.7,79,69,63,30.20,29.95,7,2,10,0.00
2013-11-17,58.2,53.7,49.5,54.4,49.3,42.1,92,85,69,29.95,29.22,12,4,20,0.38
2013-11-18,55.0,44.2,36.4,47.8,34.1,26.9,80,68,55,29.92,29.23,17,8,28,0.02
2013-11-19,38.5,34.0,27.5,29.6,23.9,20.6,79,67,55,30.48,29.92,11,5,18,0.00
2013-11-20,37.7,31.8,24.9,30.4,24.7,17.9,79,75,67,30.59,30.42,3,1,7,0.00
2013-11-21,44.6,40.3,34.3,39.7,32.7,25.6,92,74,62,30.42,30.22,7,3,10,0.06
2013-11-22,48.3,41.3,29.3,44.6,37.8,22.6,95,87,73,30.22,30.00,12,3,23,0.29
2013-11-23,32.5,26.4,13.4,26.9,18.3,6.0,87,71,54,30.28,30.04,13,6,26,0.00
2013-11-24,24.1,17.3,11.1,14.4,9.0,3.5,79,70,56,30.45,30.27,9,4,14,0.00
2013-11-25,35.2,29.0,19.7,26.8,19.3,11.6,82,67,52,30.40,30.05,11,7,22,0.00
2013-11-26,35.5,33.3,31.4,32.8,28.7,24.7,93,83,75,30.12,29.84,7,3,11,0.04
2013-11-27,33.0,28.9,19.4,31.1,23.6,11.5,93,81,67,29.97,29.70,12,5,25,0.07
2013-11-28,28.5,22.9,18.2,17.2,13.6,10.6,76,68,54,30.45,29.97,7,2,12,0.00
2013-11-29,31.6,23.4,15.2,19.7,14.6,6.9,80,69,53,30.73,30.45,4,1,6,0.02
2013-11-30,36.7,31.5,25.9,29.5,22.6,14.5,77,70,55,30.71,30.15,8,4,17,0.01
2013-12-1,39.6,37.7,35.7,36.6,33.4,29.2,91,85,74,30.14,29.93,5,1,8,0.13
2013-12-2,37.3,36.2,34.1,34.9,31.5,26.3,92,83,73,29.93,29.86,5,1,10,0.01
2013-12-3,39.7,33.5,26.4,29.3,25.7,22.8,92,73,59,30.01,29.92,4,1,7,0.00
2013-12-4,38.6,36.3,33.6,36.0,32.7,28.9,91,87,79,30.05,29.83,2,1,7,0.06
2013-12-5,60.2,46.1,38.1,50.6,39.3,26.9,93,78,54,30.02,29.67,11,4,15,0.00
2013-12-6,37.9,32.9,29.1,26.8,21.5,17.4,68,63,58,30.27,29.99,5,3,11,0.00
2013-12-7,29.9,26.9,22.0,18.1,14.2,10.1,69,59,47,30.57,30.26,7,4,15,0.00
2013-12-8,31.0,25.1,20.7,22.0,15.1,11.6,75,65,51,30.58,30.18,5,2,12,0.00
2013-12-9,34.9,31.3,27.2,32.3,25.5,16.3,92,79,63,30.18,29.82,13,7,23,0.03
2013-12-10,27.1,21.2,17.9,17.5,10.2,6.7,78,62,52,30.04,29.92,9,6,17,0.00
2013-12-11,24.9,20.8,15.1,14.6,10.5,5.7,75,64,50,30.31,30.04,9,5,20,0.00
2013-12-12,20.0,16.0,13.6,10.5,7.2,4.4,78,68,53,30.33,30.04,9,5,16,0.00
2013-12-13,23.7,16.7,10.2,18.3,7.7,-0.8,84,68,54,30.45,30.01,9,5,15,0.00
2013-12-14,13.0,9.3,6.2,9.9,3.2,-3.9,92,76,59,30.48,29.82,3,2,8,0.00
2013-12-15,23.9,16.2,8.9,19.7,12.1,5.3,92,83,78,29.89,29.72,8,4,15,0.00
2013-12-16,20.0,11.8,4.5,11.6,4.9,0.2,92,74,56,30.20,29.89,7,2,10,0.02
2013-12-17,26.6,19.3,7.5,23.9,15.2,3.2,92,84,73,30.16,29.91,5,1,8,0.02
2013-12-18,32.6,28.4,25.4,24.8,22.5,20.4,89,79,70,30.05,29.92,7,4,11,0.01
2013-12-19,37.3,33.4,29.8,30.5,26.5,22.3,85,76,70,30.03,29.85,7,3,15,0.02
2013-12-20,34.0,32.7,31.2,32.5,30.9,29.4,94,93,86,30.00,29.79,4,0,6,0.35
2013-12-21,33.1,31.8,30.1,31.6,30.1,28.1,94,93,92,29.92,29.73,6,0,8,0.50
2013-12-22,34.7,30.8,27.4,32.9,28.7,25.1,94,92,87,29.95,29.64,5,0,8,0.00
2013-12-23,34.5,27.5,20.9,31.9,23.8,17.9,92,86,76,30.29,29.92,3,0,7,0.00
2013-12-24,20.6,13.0,5.3,17.7,7.9,0.5,89,80,70,30.55,30.25,0,0,0,0.00
2013-12-25,26.9,13.7,2.1,21.5,9.3,-2.7,92,82,78,30.56,30.17,0,0,0,0.00
2013-12-26,31.9,26.9,22.4,26.1,22.5,17.1,90,83,76,30.26,30.06,7,2,12,0.00
2013-12-27,33.5,28.1,22.6,29.7,22.7,17.5,92,80,66,30.26,30.03,6,3,10,0.01
2013-12-28,38.1,36.6,32.4,32.9,31.7,29.5,89,82,79,30.07,29.90,10,3,15,0.18
2013-12-29,42.0,35.9,21.1,33.3,29.1,12.2,90,76,65,29.90,29.60,10,3,15,0.06
2013-12-30,21.0,15.3,12.1,12.3,4.4,-5.3,79,62,34,30.25,29.82,9,3,15,0.00
2013-12-31,20.6,16.4,12.8,16.5,10.1,5.4,88,76,59,30.25,29.99,10,3,18,0.00
2014-1-1,16.0,11.3,5.5,9.9,1.7,-8.9,83,65,50,30.44,30.25,7,4,12,0.01
2014-1-2,5.5,1.2,-3.0,-2.7,-6.6,-12.4,77,69,54,30.40,30.12,9,4,16,0.00